This demonstration page uses our WeatherBlox Daily Observations layout. Learn more.

Left ArrowRight Arrow

Hourly Observations for May 25, 2020

Temp ( °F °C ) Dew Point ( °F °C ) Humidity (%) Winds ( mph kmh ) Pressure ( in mb ) Visibility ( mi km ) Precip ( " mm )
12:53 am 00:53 Clear 74 23.3 50 10 43 43 N 9 15 29.88 1012 10 16 0.00 0.00
1:53 am 01:53 Clear 67 19.4 51 10.6 57 57 NW 5 7 29.89 1012 10 16 0.00 0.00
2:53 am 02:53 Clear 68 20 51 10.6 55 55 N 6 9 29.89 1012 10 16 0.00 0.00
3:53 am 03:53 Clear 71 21.7 49 9.4 46 46 NW 7 11 29.88 1012 10 16 0.00 0.00
4:53 am 04:53 Clear 67 19.4 50 10 55 55 N 5 7 29.88 1012 10 16 0.00 0.00
5:53 am 05:53 Sunny 69 20.6 49 9.4 49 49 NNW 8 13 29.88 1012 10 16 0.00 0.00
6:53 am 06:53 Sunny 73 22.8 49 9.4 43 43 N 6 9 29.89 1012 10 16 0.00 0.00
7:53 am 07:53 Sunny 76 24.4 52 11.1 43 43 NNW 6 9 29.90 1013 10 16 0.00 0.00
8:53 am 08:53 Sunny 81 27.2 51 10.6 35 35 NNW 10 17 29.89 1012 10 16 0.00 0.00
9:53 am 09:53 Sunny 85 29.4 51 10.6 31 31 N 9 15 29.88 1012 10 16 0.00 0.00
10:53 am 10:53 Sunny 88 31.1 52 11.1 29 29 N 10 17 29.88 1012 10 16 0.00 0.00
11:53 am 11:53 Sunny 90 32.2 53 11.7 28 28 VRB 6 9 29.87 1012 10 16 0.00 0.00
12:53 pm 12:53 Sunny 92 33.3 51 10.6 25 25 NNW 8 13 29.84 1011 10 16 0.00 0.00
1:53 pm 13:53 Sunny 94 34.4 50 10 22 22 NW 9 15 29.83 1010 10 16 0.00 0.00
2:53 pm 14:53 Sunny 96 35.6 49 9.4 20 20 VRB 6 9 29.80 1009 10 16 0.00 0.00
3:53 pm 15:53 Sunny 97 36.1 52 11.1 22 22 Calm 29.78 1009 10 16 0.00 0.00
4:53 pm 16:53 Sunny 97 36.1 50 10 20 20 SE 7 11 29.77 1008 10 16 0.00 0.00
5:53 pm 17:53 Sunny 96 35.6 51 10.6 22 22 SSE 7 11 29.76 1008 10 16 0.00 0.00
6:53 pm 18:53 Sunny 95 35 51 10.6 23 23 SSW 6 9 29.76 1008 10 16 0.00 0.00
7:53 pm 19:53 Sunny 90 32.2 59 15 35 35 W 3 6 29.76 1008 10 16 0.00 0.00
8:53 pm 20:53 Clear 82 27.8 60 15.6 47 47 SSE 3 6 29.78 1009 10 16 0.00 0.00
9:53 pm 21:53 Clear 82 27.8 59 15 46 46 Calm 29.80 1009 10 16 0.00 0.00
10:53 pm 22:53 Clear 77 25 60 15.6 56 56 ESE 7 11 29.82 1010 10 16 0.00 0.00
11:53 pm 23:53 Clear 75 23.9 61 16.1 62 62 ENE 5 7 29.83 1010 10 16 0.00 0.00

Powered by AerisWeather